Location: 5810 Zion Rd, Cleves, OH 45002, USA
(39.1922°N, 84.7113°W)
Time: 05:41:45
(UTC-05:00)

Vanguard 3 - Pass Details

Date: 23 December 2019
Orbit: 507 x 3263 km, 33.4° (Epoch: 24 January)

Event Time Altitude Azimuth Distance (km) Brightness Sun altitude
Rises 04:36:33 0° 229° (SW) 2,590 - -37.6°
Reaches altitude 10° 04:38:53 10° 214° (SSW) 1,726 - -37.1°
Maximum altitude 04:41:56 24° 158° (SSE) 1,197 - -36.6°
Exits shadow 04:44:07 16° 118° (ESE) 1,619 9.2 -36.1°
Drops below altitude 10° 04:45:37 10° 104° (ESE) 2,119 10.0 -35.8°
Sets 04:48:51 0° 91° (E) 3,368 11.4 -35.2°
